Weather Roundup
Issued by NWS Springfield, MO

Home | Current Version | Previous Version | Text Only | Print | Product List | Glossary On
Versions: 1 2 3 4 5 6 7 8 9 10 11 12 13 14 15 16 17 18 19 20 21 22 23 24 25 26 27 28 29 30 31 32 33 34 35 36 37 38 39 40 41 42 43 44 45 46 47 48 49 50
000
NZUS99 KSGF 281759
HRRSGF

HOURLY WEATHER
NATIONAL WEATHER SERVICE SPRINGFIELD MO
1200 PM CST SUN DEC 28 2014

......SGF CWA......

CITY           SKY/WX    TMP DP  RH WIND       PRES   REMARKS
SPRINGFIELD    CLOUDY    30  23  75 NW3       30.20F
6HR MIN TEMP:  25; 6HR MAX TEMP:  30;

JOPLIN         SUNNY     31  23  72 CALM      30.24F
6HR MIN TEMP:  21; 6HR MAX TEMP:  31;

WEST PLAINS    CLOUDY    31  24  75 VRB3      30.19F
6HR MIN TEMP:  28; 6HR MAX TEMP:  32;

ROLLA          PTSUNNY   30  24  78 W3        30.20F
6HR MIN TEMP:  27; 6HR MAX TEMP:  30;

OSAGE BEACH    CLOUDY    30  23  74 SW5       30.23F WCI  25
BRANSON        PTSUNNY   32  25  74 CALM      30.21F

......SURROUNDING SGF CWA......

CITY           SKY/WX    TMP DP  RH WIND       PRES   REMARKS
CHANUTE        SUNNY     34  22  61 VRB3      30.22F
PARSONS        SUNNY     35  23  61 VRB5      30.24F WCI  31
COFFEYVILLE    SUNNY     35  23  61 SE3       30.24F
EMPORIA        SUNNY     35  23  61 SE9       30.18F WCI  28
SILOAM SPRINGS PTSUNNY   32  21  64 CALM      30.23F
HARRISON AR    CLOUDY    32  24  72 CALM      30.20F
NEAR YELLVILLE CLOUDY    34  21  60 N5        30.22F WCI  30

......KANSAS AND MISSOURI......

CITY           SKY/WX    TMP DP  RH WIND       PRES   REMARKS
KANSAS CTY INT MOSUNNY   34  21  59 SW9       30.20F WCI  27
DOWNTOWN KC    SUNNY     35  19  52 SW8       30.22F WCI  29
COLUMBIA       MOSUNNY   31  24  75 SW3       30.23F
SEDALIA        SUNNY     33  22  63 S6        30.23F WCI  28
ST JOSEPH      SUNNY     33  23  66 SW10      30.20F WCI  25
ST LOUIS       CLOUDY    35  25  66 W6        30.23F WCI  30
SPIRIT OF STL  CLOUDY    34  25  69 W6        30.23F WCI  29
KIRKSVILLE     SUNNY     32  19  58 SW7       30.20F WCI  26
WICHITA        MOSUNNY   37  22  54 S12       30.18F WCI  29
TOPEKA         SUNNY     36  21  54 S3        30.21F
OLATHE         SUNNY     32  21  64 S7        30.20F WCI  26

......TENNESSEE......

CITY           SKY/WX    TMP DP  RH WIND       PRES   REMARKS
MEMPHIS        LGT RAIN  41  36  82 N8        30.17F
NASHVILLE      CLOUDY    41  39  93 N7        30.14F

......ARKANSAS.......

CITY           SKY/WX    TMP DP  RH WIND       PRES   REMARKS
FAYETTEVILLE   CLOUDY    32  25  75 NE3       30.21F
FT SMITH       CLOUDY    38  26  62 CALM      30.24F
LITTLE ROCK    CLOUDY    39  30  70 N8        30.22F WCI  33

......OKLAHOMA.......

CITY           SKY/WX    TMP DP  RH WIND       PRES   REMARKS
TULSA          MOSUNNY   34  23  64 CALM      30.25F
PONCA CITY     SUNNY     38  22  52 S6        30.22F WCI  33
MCALESTER      MOSUNNY   37  26  64 NE6       30.24F WCI  32
OKLAHOMA CITY  MOSUNNY   35  21  56 S6        30.21F WCI  30

......IOWA............

CITY           SKY/WX    TMP DP  RH WIND       PRES   REMARKS
DES MOINES     SUNNY     28  20  71 S6        30.16F WCI  22
QUAD CITIES    SUNNY     31  19  61 W3        30.19F

......ILLINOIS........

CITY           SKY/WX    TMP DP  RH WIND       PRES   REMARKS
QUINCY         MOSUNNY   31  21  66 VRB6      30.21F WCI  25
CHICAGO        MOSUNNY   31  15  52 W9        30.15F WCI  23




USA.gov is the U.S. government's official web portal to all federal, state and local government web resources and services.